Tracking 21092 objects as of 14-Aug-2020
HD Live streaming from Space Station
objects crossing your sky now
Track the most recent launched group of Starlink satellites

COSMOS 1934 DEB

Track COSMOS 1934 DEB now!
10-day predictions


NORAD ID: 21912
Int'l Code: 1988-023C
Perigee: 930.3 km
Apogee: 988.8 km
Inclination: 83.0 °
Period: 104.1 minutes
Semi major axis: 7330 km
RCS: 0.1428 m2 (medium)
Launch date: March 22, 1988
Source: Commonwealth of Independent States (former USSR) (CIS)
Launch site: PLESETSK MISSILE AND SPACE COMPLEX (PKMTR)

Note: This is SATELLITE DEBRIS
aabbcc
Your satellite tracking list
Your tracking list is empty




NASA's NSSDC Master Catalog

Two Line Element Set (TLE):
1 21912U 88023C   20226.82554975 +.00000185 +00000-0 +15315-3 0  9995
2 21912 082.9535 246.0068 0039921 139.3023 033.5525 13.83233159506608
Source of the keplerian elements: AFSPC